[[{"header":{"parameterUnit":"m.s-1","parameterCategory":1,"la1":30.2992,"la2":30.254,"lo1":-89.0895,"lo2":-89.0443,"dy":0.0025,"dx":0.0025,"nx":19,"ny":19,"refTime":"2026-03-12T21:00:00:Z","depth":0,"parameterNumber":2,"parameterNumberName":"U-component_of_WINDS"},"data":[0,0,0,0.0238,0.0237,0.017,0.017,0.0089,0.0088,0,0,0,0,0,0,0,0,0,0,0,0.0264,0.0264,0.0238,0.0237,0.017,0.017,0.0089,0.0088,0,0,0,0,0,0,0,0,0,0,0,0.0264,0.0264,0.0264,0.0237,0.017,0.017,0.0089,0.0137,0,0,0,0,0,0,0,0,0,0,0.0201,0.0232,0.0264,0.0264,0.0236,0.017,0.017,0.0139,0.0134,0.0122,0,0.0117,0,0.0101,0.0083,0.0083,0,0,0,0.0231,0.0236,0.0213,0.0264,0.0236,0.017,0.0199,0.0136,0.013,0.0115,0.0115,0.0112,0.01,0.0083,0.0082,0.0042,0.0042,0,0,0.0235,0.0255,0.0217,0.021,0.0224,0.0201,0.0197,0.0132,0.0132,0.0115,0.011,0.0099,0.0082,0.0082,0.0042,0.0042,0,0,0,0.0249,0.0258,0.0236,0.0213,0.0201,0.0199,0.0194,0.0135,0.0127,0.0109,0.0098,0.0082,0.0081,0.0042,0.0042,0.0067,0,0,0,0.0251,0.0266,0.0238,0.0249,0.0203,0.0168,0.0199,0.0131,0.0123,0.0098,0.0082,0.008,0.0041,0.0042,0.0066,0.0075,0,0,0,0.0266,0.0268,0.0261,0.025,0.0223,0.0169,0.0156,0.0129,0.0117,0.0083,0.008,0.0041,0.0042,0.0065,0.0074,0.0071,0,0,0,0.0287,0.0282,0.0262,0.0251,0.0224,0.0186,0.0156,0.0126,0.0101,0.0082,0.0041,0.0042,0.0065,0.0073,0.007,0.0072,0.0075,0,0,0.0292,0.0284,0.0276,0.0255,0.0227,0.0194,0.0168,0.0124,0.01,0.0061,0.006,0.0066,0.0073,0.007,0.0085,0.0087,0,0,0,0.0284,0.0278,0.0266,0.0245,0.0213,0.0185,0.0144,0.0127,0.0094,0.0086,0.0064,0.0067,0.0064,0.0064,0.0067,0.0063,0.0043,0.0043,0.0043,0.0318,0.0291,0.0276,0.0241,0.022,0.0177,0.0156,0.0126,0.0102,0.0097,0.0086,0.0098,0.0099,0.0101,0.0097,0.0085,0.0085,0.0085,0.0085,0.0322,0.031,0.0281,0.0257,0.0227,0.0204,0.0161,0.0145,0.0118,0.0105,0.0101,0.0089,0.0105,0.01,0.0087,0.0086,0.0086,0.0086,0.0086,0.0342,0.0332,0.0314,0.028,0.0255,0.0218,0.0194,0.0166,0.014,0.0136,0.012,0.012,0.0116,0.0131,0.0131,0.0131,0.0131,0.0131,0.0131,0.037,0.0349,0.0334,0.03,0.0283,0.0255,0.0212,0.0192,0.0163,0.0145,0.0144,0.0121,0.0112,0.011,0.0131,0.0131,0.0131,0.0131,0.0131,0.0384,0.0377,0.0354,0.0337,0.0294,0.0271,0.0237,0.02,0.0179,0.0168,0.0145,0.0143,0.0131,0.0129,0.0128,0.0152,0.0152,0.0152,0.0152,0.0401,0.0393,0.0364,0.0338,0.0309,0.0275,0.0247,0.0212,0.0174,0.0159,0.0151,0.0147,0.0146,0.0134,0.0132,0.013,0.0155,0.0155,0.0155,0.0408,0.0396,0.0379,0.0346,0.0311,0.028,0.0252,0.022,0.0175,0.0154,0.0146,0.0146,0.0139,0.0138,0.0118,0.0115,0.0111,0,0]},{"header":{"parameterUnit":"m.s-1","parameterCategory":1,"la1":30.2992,"la2":30.254,"lo1":-89.0895,"lo2":-89.0443,"dy":0.0025,"dx":0.0025,"nx":19,"ny":19,"refTime":"2026-03-12T21:00:00:Z","depth":0,"parameterNumber":3,"parameterNumberName":"V-component_of_WINDS"},"data":[0,0,0,0.3459,0.3457,0.3397,0.3396,0.333,0.333,0,0,0,0,0,0,0,0,0,0,0,0.3484,0.3484,0.3459,0.3457,0.3397,0.3396,0.333,0.333,0,0,0,0,0,0,0,0,0,0,0,0.3484,0.3484,0.3484,0.3457,0.3397,0.3396,0.3331,0.3372,0,0,0,0,0,0,0,0,0,0,0.3429,0.346,0.3484,0.3484,0.3457,0.3397,0.3396,0.3374,0.3369,0.3363,0,0.336,0,0.3344,0.3326,0.3326,0,0,0,0.3451,0.3464,0.3441,0.3484,0.3456,0.3397,0.3422,0.3371,0.3366,0.3358,0.3359,0.3356,0.3343,0.3326,0.3326,0.3313,0.3313,0,0,0.3455,0.3477,0.3444,0.3438,0.3449,0.3424,0.342,0.3368,0.3371,0.3359,0.3355,0.3342,0.3326,0.3325,0.3313,0.3313,0,0,0,0.3468,0.348,0.3457,0.3441,0.3429,0.3423,0.3418,0.3373,0.3364,0.3354,0.3341,0.3325,0.3325,0.3313,0.3313,0.3347,0,0,0,0.347,0.3488,0.3459,0.3472,0.3431,0.3401,0.3425,0.3368,0.3361,0.3342,0.3325,0.3324,0.3312,0.3313,0.3345,0.3359,0,0,0,0.3486,0.3489,0.3483,0.3474,0.3449,0.3401,0.3389,0.3366,0.3354,0.3326,0.3324,0.3312,0.3313,0.3344,0.3356,0.3363,0,0,0,0.3508,0.3513,0.3484,0.3485,0.3449,0.3423,0.3389,0.3367,0.3348,0.3325,0.3312,0.3313,0.3344,0.3355,0.3362,0.3373,0.3379,0,0,0.3526,0.3516,0.3514,0.3487,0.3472,0.343,0.342,0.3379,0.3355,0.3328,0.3328,0.3346,0.3356,0.3363,0.3409,0.3414,0,0,0,0.3528,0.3527,0.3518,0.3501,0.3472,0.3448,0.3407,0.3393,0.337,0.3346,0.3349,0.3355,0.3357,0.3362,0.3366,0.3368,0.3316,0.3316,0.3316,0.3585,0.3556,0.3552,0.3517,0.3501,0.346,0.3445,0.3418,0.3392,0.3393,0.3385,0.3417,0.3422,0.3426,0.3428,0.3388,0.3388,0.3389,0.3389,0.3609,0.3604,0.3572,0.3557,0.3527,0.3513,0.3475,0.3458,0.3441,0.342,0.3421,0.3401,0.3433,0.3433,0.3391,0.339,0.339,0.339,0.339,0.3643,0.3636,0.362,0.3594,0.3578,0.3541,0.3528,0.35,0.3473,0.3474,0.3463,0.3463,0.3459,0.3471,0.3471,0.3472,0.3472,0.3472,0.3472,0.3685,0.3666,0.3658,0.363,0.3617,0.3595,0.3557,0.3543,0.352,0.3501,0.3501,0.3475,0.3441,0.3434,0.3473,0.3473,0.3473,0.3473,0.3473,0.3721,0.3709,0.3697,0.3684,0.365,0.3636,0.3602,0.3576,0.356,0.3555,0.353,0.351,0.3496,0.3492,0.3485,0.3536,0.3536,0.3536,0.3536,0.375,0.3741,0.3724,0.3705,0.3684,0.3653,0.3641,0.3612,0.3579,0.3568,0.3557,0.3546,0.3543,0.3531,0.3527,0.352,0.3578,0.3578,0.3578,0.377,0.3759,0.3754,0.3724,0.3695,0.3671,0.366,0.364,0.3601,0.3579,0.3559,0.3557,0.3539,0.3535,0.3512,0.3505,0.3493,0,0]}]]